Regional Weather Roundup
Issued by NWS Bismarck, ND

Home | Current Version | Previous Version | Text Only | Print | Product List | Glossary On
Versions: 1 2 3 4 5 6 7 8 9 10 11 12 13 14 15 16 17 18 19 20 21 22 23 24 25 26 27 28 29 30 31 32 33 34 35 36 37 38 39 40 41 42 43 44 45 46 47 48 49 50
414
ASUS43 KBIS 051602
RWRBIS

NWR BROADCAST TEXT
NATIONAL WEATHER SERVICE BISMARCK ND
1000 AM CST MON DEC 05 2016

NOTE: "FAIR" INDICATES FEW OR NO CLOUDS BELOW 12,000 FEET WITH NO
SIGNIFICANT WEATHER AND/OR OBSTRUCTIONS TO VISIBILITY.


CITY           SKY/WX    TMP DP  RH WIND       PRES   REMARKS
WILLISTON      CLOUDY    23  17  78 NW26G35   29.61R BLWGSNOWWCI   6
MINOT          CLOUDY    22  20  92 CALM      29.54R
MINOT AFB      CLOUDY    19  17  92 S3        29.54R
BISMARCK       CLOUDY    28  25  88 SW5       29.58R FOG
DICKINSON      CLOUDY    24  20  84 W29G39    29.56S FOG     WCI   7
GARRISON         N/A     33  30  88 W10       29.55R
HETTINGER ARPT MIX PCPN  25  21  85 NW28G35   29.58S FOG     WCI   9
JAMESTOWN      CLOUDY    26  24  92 E9        29.57F WCI  17
CARRINGTON     FAIR      23  21  93 S6G13     29.63R WCI  16
STANLEY        CLOUDY    19  19 100 NW12G22   29.57R WCI   7
TIOGA          CLOUDY    19  19 100 NW15G22   29.57R WCI   5
$$

CITY           SKY/WX    TMP DP  RH WIND       PRES   REMARKS
GRAND FORKS    FOG       27  25  92 SE12      29.68F VSB 1   WCI  17
GRAND FORKS AF CLOUDY    26  25  97 SE9       29.69R FOG     WCI  17
DEVILS LAKE    LGT SNOW  24  23  96 E15       29.61F FOG     WCI  11
FARGO          PTSUNNY   27  23  85 NE8       29.64F WCI  19
GRAFTON        CLOUDY    27  27 100 SE8       29.73R FOG     WCI  18
GWINNER          N/A     32  30  93 E10       29.58S
$$

CITY           SKY/WX    TMP DP  RH WIND       PRES   REMARKS
ABERDEEN       CLOUDY    32  28  85 E8        29.52F
MOBRIDGE       CLOUDY    31  25  78 N7        29.49R
BUFFALO          N/A     25  18  74 NW39      29.53R WCI   6
RAPID CITY     PTSUNNY   31  24  75 NW38G46   29.56R WCI  15
GLASGOW        LGT SNOW  14  10  84 NW31G43   29.83R FOG     WCI  -7
SIDNEY         FLURRIES  23  18  81 NW22G31   29.70R WCI   8
WOLF POINT     LGT SNOW  22  15  75 NW22G30   29.80R WCI   6
GLENDIVE       CLOUDY    21  16  81 NW15G28   29.74R WCI   8
MILES CITY     CLOUDY    23  13  65 NW26G33   29.80R WCI   6
BAKER          CLOUDY    22  16  78 NW28G40   29.65F WCI   4
$$

CITY           SKY/WX    TMP DP  RH WIND       PRES   REMARKS
BILLINGS       CLOUDY    21   8  57 N5        29.85R WCI  15
GREAT FALLS    CLOUDY    13   8  81 NW12      29.97R WCI  -1
$$





USA.gov is the U.S. government's official web portal to all federal, state and local government web resources and services.